Location: Cz?stochówka
(50.8142°N, 19.0915°E)
Time: 09:46:56
(UTC+00:00)

Cosmos 1833 Rocket - Pass Details

Date: 13 January 2026
Orbit: 831 x 839 km, 71.0° (Epoch: 11 February)

Event Time Altitude Azimuth Distance (km) Brightness Sun altitude
Exits shadow 03:59:34 62° 304° (NW) 944 2.6 -24.7°
Maximum altitude 04:00:28 75° 244° (WSW) 869 2.5 -24.6°
Drops below altitude 10° 04:06:03 10° 160° (SSE) 2,441 5.4 -23.7°
Sets 04:08:28 0° 159° (SSE) 3,369 6.2 -23.3°
